Flag for United Kingdom Weather past 2 weeks in Rotherham, England, United Kingdom

Now
54 °F

Cool.


Feels Like: 51 °F
Forecast: 48 / 62 °F
Wind: 9 mph from Southwest

Location: Nottingham Weather Centre

Current Time: Jul 28, 2015 at 7:28:11 AM

Latest Report: Jul 28, 2015 at 6:00 AM


Visibility: 19 mi

Pressure: 29.57 "Hg

Humidity: 88%

Dew point: 50 °F

Location of RotherhamLocation

Historic Weather in Rotherham — Graph

°F

Rotherham temperature yesterday

Maximum temperature yesterday: 62 °F (at 12:00 PM)
Minimum temperature yesterday: 56 °F (at 12:00 AM)
Average temperature yesterday: 59 °F

Past Weeks' High & Low Weather Summary

 TemperatureHumidityPressure
High72 °F (Jul 16, 3:00 PM)100% (Jul 26, 8:00 PM)30.15 "Hg (Jul 26, 8:00 PM)
Low46 °F (Jul 26, 6:00 AM)42% (Jul 18, 4:00 PM)29.32 "Hg (Jul 27, 1:00 AM)
Average59 °F75%29.87 "Hg
* Reported Jul 13 6:00 AM — Jul 28 6:00 AM, Rotherham, Weather by CustomWeather, © 2015

Note: Actual official high and low records may vary slightly from our data, if they occured in-between our weather recording intervals... More about our weather records

Advertising

Rotherham weather history for previous 24 hours

 ConditionsComfort  
Time TempWeatherWind HumidityBarometerVisibility
6:00 AM
Tue, Jul 28
54 °FCool.9 mph88%29.57 "Hg19 mi
5:00 AM54 °FCool.10 mph91%29.55 "Hg16 mi
4:00 AM55 °FCool.12 mph97%29.54 "Hg9 mi
3:00 AM56 °FFog.9 mph99%29.54 "Hg2 mi
2:00 AM56 °FCool.10 mph98%29.53 "Hg2 mi
1:00 AM56 °FFog.6 mph98%29.53 "Hg1 mi
12:00 AM56 °FCool.7 mph96%29.54 "Hg6 mi
11:00 PM
Mon, Jul 27
56 °FRain showers. Overcast.9 mph91%29.54 "Hg2 mi
9:00 PM59 °FCool.9 mph81%29.54 "Hg11 mi
8:00 PM58 °FCool.7 mph87%29.54 "Hg17 mi
7:00 PM59 °FCool.8 mph84%29.53 "Hg11 mi
6:00 PM60 °FCool.7 mph80%29.50 "Hg28 mi
5:00 PM62 °FCool.12 mph74%29.50 "Hg28 mi
4:00 PM62 °FCool.8 mph72%29.50 "Hg22 mi
3:00 PM62 °FCool.12 mph70%29.47 "Hg28 mi
2:00 PM60 °FCool.13 mph74%29.47 "Hg11 mi
1:00 PM61 °FCool.10 mph74%29.44 "Hg25 mi
12:00 PM62 °FCool.10 mph75%29.44 "Hg9 mi
11:00 AM60 °FCool.12 mph80%29.41 "Hg25 mi
10:00 AM59 °FCool.10 mph87%29.41 "Hg18 mi
9:00 AM58 °FCool.10 mph93%29.38 "Hg15 mi
8:00 AM58 °FCool.9 mph96%29.38 "Hg11 mi
7:00 AM57 °FCool.7 mph98%29.35 "Hg15 mi
Weather by CustomWeather, © 2015

See weather overviewHow to use our weather pages